National Weather Service Hourly Weather Roundup
NOAA NWS Hourly Roundups by Site
NOAA NWS Hourly Roundups by Site
Regional Weather Roundup for Sacramento, CA

To Select Another Site Choose from List

Select Site:  

000
ASUS46 KSTO 061515
RWRCA

NORTHERN AND CENTRAL CA REGIONAL WEATHER ROUNDUP
NATIONAL WEATHER SERVICE SACRAMENTO CA
800 AM PDT WED JUL 06 2022

NOTE: FAIR INDICATES FEW OR NO CLOUDS BELOW 12,000 FEET WITH NO
SIGNIFICANT WEATHER AND/OR OBSTRUCTIONS TO VISIBILITY.

CAZ001-003-061600-
NORTHWEST AREA

CITY           SKY/WX    TMP DP  RH WIND       PRES   REMARKS
CRESCENT CITY  CLOUDY    59  58  96 S6        29.98S
UKIAH          CLOUDY    65  54  67 NE5       29.96R
$$

CAZ006-505>513-061600-
BAY AREA

CITY           SKY/WX    TMP DP  RH WIND       PRES   REMARKS
SANTA ROSA     CLOUDY    62  56  80 SW6       29.97R
SAN RAFAEL     N/A       62  MM  MM MISG
NAPA           CLOUDY    64  56  75 W9        29.97R
CONCORD        CLOUDY    65  53  65 SW10      29.98R
OAKLAND CITY   N/A       63  MM  MM MISG
OAKLAND        PTSUNNY   65  57  75 W9        29.99R
SAN FRAN CITY  N/A       61  MM  88 MISG
SAN FRAN ARPT  PTSUNNY   65  56  72 VRB5      29.98R
LIVERMORE      CLOUDY    64  55  72 W10       29.98R
HAYWARD        PTSUNNY   64  57  78 W8        29.98R
SAN JOSE ARPT  CLOUDY    66  53  63 NW7       29.99R
$$
CAZ034-037-514>518-061600-
CENTRAL COAST

CITY           SKY/WX    TMP DP  RH WIND       PRES   REMARKS
WATSONVILLE    CLOUDY    59  58  96 VRB5      30.01R
MONTEREY       CLOUDY    64  55  72 CALM      30.01R
SAN LUIS OBISP CLOUDY    61  57  87 NW8       29.99R
SANTA MARIA    CLOUDY    60  56  86 NW8       30.00R
HALF MOON BAY  CLOUDY    61  61 100 SE7       30.00R
$$
CAZ015-016-061600-
NORTHERN SACRAMENTO VALLEY

CITY           SKY/WX    TMP DP  RH WIND       PRES   REMARKS
REDDING        PTSUNNY   70  55  59 S7        29.93R
RED BLUFF      SUNNY     68  55  63 SE9       29.94R
OROVILLE       SUNNY     68  56  65 SE14      29.95R
$$
CAZ016>018-061600-
SOUTHERN SACRAMENTO VALLEY

CITY           SKY/WX    TMP DP  RH WIND       PRES   REMARKS
AUBURN         SUNNY     61  54  77 SE10      29.98R
BEALE AFB      SUNNY     67  55  66 S13       29.94R
LINCOLN        FAIR      64  54  68 SE14      29.95R
MARYSVILLE     SUNNY     66  55  67 S13       29.95R
SAC INTL ARPT  SUNNY     67  54  63 S9        29.94R
MATHER AIRPORT SUNNY     64  54  68 SW12      29.95R
DOWNTOWN SAC   N/A       67  MM  MM MISG
SAC EXEC ARPT  SUNNY     66  56  70 SW10      29.95R
VACAVILLE      SUNNY     67  54  63 SW10      29.95R
TRAVIS AFB     MOSUNNY   66  54  63 SW16G23   29.94R
$$
CAZ019>021-061600-
SAN JOAQUIN VALLEY

CITY           SKY/WX    TMP DP  RH WIND       PRES   REMARKS
STOCKTON       MOSUNNY   68  55  63 W8        29.96R
MODESTO        SUNNY     65  55  70 N13       29.95R
MERCED         SUNNY     67  56  67 N16       29.95R
LEMOORE        MOSUNNY   69  56  62 NW14      29.96R
FRESNO         SUNNY     68  57  68 NW8       29.95R
HANFORD        SUNNY     69  57  65 NW10      29.96R
PORTERVILLE    SUNNY     70  59  68 MISG      29.97R
BAKERSFIELD    SUNNY     71  57  61 NW9       29.96R
$$
CAZ011-012-071-061600-
NORTHERN MOUNTAINS

CITY           SKY/WX    TMP DP  RH WIND       PRES   REMARKS
YREKA          SUNNY     63  53  70 N8        29.98S
MOUNT SHASTA   MOSUNNY   61  52  72 CALM      30.00R
ALTURAS        SUNNY     58  45  62 CALM      30.04S
$$
CAZ011-012-071-061600-
SIERRA NEVADA MTNS

CITY           SKY/WX    TMP DP  RH WIND       PRES   REMARKS
BLUE CANYON    SUNNY     60  52  74 VRB3      30.11R
TRUCKEE        SUNNY     52  45  76 CALM      30.13S
TAHOE VLY ARPT SUNNY     55  45  68 NE3       30.13R
MAMMOTH LAKES  FAIR      59  39  47 CALM      30.18R
$$


 

View Past Reports for Sacramento, CA.

Products Courtesy of NOAA-NWS
NWS Information Parsing Script by Ken True at Saratoga Weather - Script by SE Lincoln Weather.

powered by Cumulus v1.9.3 (1059)
Ambient Weather VWS v14.00
Top Website Map Copyright © 2007 - 2022 Foresthillweather.com Never base important decisions on this or any weather information obtained from the Internet